Regional Weather Roundup
Issued by NWS

Home | Current Version | Previous Version | Graphics & Text | Print | Product List | Glossary On
Versions: 1 2 3 4 5 6 7 8 9 10 11 12 13 14 15 16 17 18 19 20 21 22 23 24 25 26 27 28 29 30 31 32 33 34 35 36 37 38 39 40 41 42 43 44 45 46 47 48 49 50
000
ASUS45 KTFX 201504
RWRMT
MONTANA HOURLY WEATHER ROUNDUP
NATIONAL WEATHER SERVICE GREAT FALLS MT
904 AM MDT SAT SEP 20 2014

NOTE: "FAIR" INDICATES FEW OR NO CLOUDS BELOW 12000 FEET WITH NO
SIGNIFICANT WEATHER AND/OR OBSTRUCTIONS TO VISIBILITY.

* THESE STATIONS ARE NOT UNDER NWS QUALITY CONTROL. THEY DO NOT
   REPORT WEATHER SUCH AS PRECIPITATION OR FOG.

MTZ001>007-043-201600-
WEST OF THE DIVIDE
CITY           SKY/WX    TMP DP  RH WIND       PRES   REMARKS
KALISPELL      SUNNY     52  46  80 CALM      30.24R
MISSOULA       PTCLDY    50  45  83 CALM      30.29R
BUTTE          SUNNY     41  37  86 CALM      30.34R
MULLAN PASS    SUNNY     52  43  72 CALM      30.31S
* ESSEX        N/A       47  43  86 SE1        N/A
* LINCOLN      N/A       36  35  96 N/A        N/A
* LOOKOUT PASS N/A       43  43 100 S2         N/A
* POLSON       N/A       50  45  83 N/A        N/A
* RONAN APT    PTSUNNY   45  43  93 N/A        N/A
* SEELEY LAKE  N/A       36  35  96 N2         N/A
* THOMP F APT  SUNNY     49  39  69 N2         N/A
$$

MTZ008-052>055-201600-
SOUTHWEST MONTANA
CITY           SKY/WX    TMP DP  RH WIND       PRES   REMARKS
BOZEMAN        SUNNY     52  45  77 CALM      30.30R
DILLON         SUNNY     48  41  77 SW6       30.30S
W YELLOWSTONE  SUNNY     41  39  93 CALM      30.37S
* THREE FORKS  SUNNY     45  28  51 N/A        N/A
* BOULDER HILL N/A       48  38  68 S8         N/A
* MONIDA PASS  N/A       46  40  80 W4         N/A
* RAYNOLDS PAS N/A       40  19  43 E4         N/A
* WHITEHALL    N/A       44  40  86 NE4G9      N/A
* WISE RIVER   N/A       38  36  93 W2         N/A
$$

MTZ009>010-012-014-046-048-049-054-201600-
EAST SLOPES AND CENTRAL MONTANA
CITY           SKY/WX    TMP DP  RH WIND       PRES   REMARKS
CUT BANK       PTCLDY    54  43  67 N6        30.24R
GREAT FALLS    PTCLDY    59  41  51 CALM      30.24R
HELENA         SUNNY     55  43  64 N3        30.27R
MALMSTROM AFB  PTCLDY    57  43  60 SE1       30.25R
* CONRAD       SUNNY     54  46  74 N/A        N/A
* EAST GLACIER N/A       50  42  74 E8         N/A
* MONARCH      N/A       49  38  66 SW6        N/A
* PENDROY      N/A       52  45  77 NE4        N/A
* ROGERS PASS  N/A       52  42  69 E5G10      N/A
* SAINT MARY   N/A       51  41  69 SE4G11     N/A
* SWEET GRASS  N/A       52  43  72 W3         N/A
$$

MTZ011-013-016-021-035-040-045-047-050-051-201600-
NORTH CENTRAL MONTANA
CITY           SKY/WX    TMP DP  RH WIND       PRES   REMARKS
HAVRE          PTCLDY    54  45  72 W6        30.19R
LEWISTOWN      PTCLDY    59  43  56 W8        30.25R
* CHESTER      N/A       50  42  74 NE2        N/A
* DENTON       N/A       59  45  60 NW9        N/A
* GEYSER       N/A       53  44  72 S6         N/A
* JUDITH GAP   N/A       56  41  57 N16G21     N/A
* LOMA         N/A       54  43  67 SW2        N/A
$$

MTZ017>020-022>027-061-062-201600-
NORTHEAST MONTANA
CITY           SKY/WX    TMP DP  RH WIND       PRES   REMARKS
GLASGOW        PTCLDY    57  46  67 W10       30.09R
JORDAN         SUNNY     61  46  58 NW9       30.14R
SIDNEY         SUNNY    N/A N/A N/A W6        30.02S
WOLF POINT     PTSUNNY   57  50  78 W13       30.06R
* BEAVER HILL  N/A       57  46  67 NW29G34    N/A
* CIRCLE       N/A       58  48  70 W1G6       N/A
* LINDSAY DVD  N/A       56  46  69 NW11G17    N/A
$$

MTZ028>042-056>058-201600-
SOUTHCENTRAL AND SOUTHEAST MONTANA
CITY           SKY/WX    TMP DP  RH WIND       PRES   REMARKS
BAKER          SUNNY     63  45  52 NW24G31   30.07R
BILLINGS       PTCLDY    57  43  60 S6        30.23R
LIVINGSTON     SUNNY     48  39  71 NW7       30.28R
MILES CITY     SUNNY     63  43  48 NW22G30   30.12R
* LAUREL APT   SUNNY     55  43  64 SW6        N/A
* ROUNDUP APT  PTCLDY    63  39  41 W9         N/A
* ALZADA       N/A       64  45  50 W14G19     N/A
* HYSHAM       N/A       57  43  60 W8         N/A
* LAME DEER    N/A       56  43  62 W9G14      N/A
* REED POINT   N/A       59  42  53 W8         N/A
$$

REGIONAL REPORTS...DAKOTAS
CITY           SKY/WX    TMP DP  RH WIND       PRES   REMARKS
WILLISTON      PTCLDY    61  50  67 W8        29.97R
DICKINSON      SUNNY     61  46  58 NW29G36   29.98R
BEACH          N/A       57  48  72 N23G30    30.05R
CROSBY         SUNNY     57  55  93 NW15G22   29.95R
TIOGA          SUNNY     55  55 100 NW21G28   29.96R
WATFORD CITY   SUNNY     59  48  67 W6        29.94F
BISMARCK       PTSUNNY   59  52  78 W6        29.87F
GRAND FORKS    PTSUNNY   61  52  72 SW5       29.79F
FARGO          SUNNY     61  54  78 SW5       29.83S
BUFFALO SD     SUNNY     66  45  47 W23       29.99R
RAPID CITY     SUNNY     70  48  46 NW12      30.09R
$$

REGIONAL REPORTS...WYOMING/IDAHO/WASHINGTON
CITY           SKY/WX    TMP DP  RH WIND       PRES   REMARKS
GILLETTE       SUNNY     63  45  52 NW12      30.21R
SHERIDAN       PTCLDY    63  45  52 NW10      30.23R
CODY           PTCLDY   N/A N/A N/A N/A        N/A
YELLOWSTONE LA SUNNY     46  43  89 CALM      30.43R
SALMON         SUNNY     46  43  89 CALM      30.27S
MULLAN PASS    SUNNY     52  43  72 CALM      30.31S
SAND POINT     SUNNY     50  50 100 CALM      30.21S
SPOKANE        SUNNY     55  48  77 NE6       30.19R

$$



USA.gov is the U.S. government's official web portal to all federal, state and local government web resources and services.